SCP
0 0 0 0 0 0 0 0 0 0 0 0 0 0 0 0 0 0 0 0 0 0 0 0 0 0 0 0 0 0 0 0 0 0 0 1 1 1
1 0 0 0 0 0 0 0 0 0 0 0 0 0 0 0 0 0 0 0 0 0 0 0 0 0 0 0 0 0 0 0 0 0 0 1 1 1
1 1 0 0 0 0 0 0 0 0 0 0 0 0 0 0 0 0 0 0 0 0 0 0 0 0 0 0 0 0 0 0 0 0 0 1 1 1
1 1 0 0 0 0 0 0 0 0 0 0 0 0 0 0 0 0 0 0 0 0 0 0 0 0 0 0 0 0 0 0 0 0 0 0 1 1
0 0 0 0 0 0 0 0 0 0 0 0 0 0 0 0 0 0 0 0 0 0 0 0 0 0 0 0 0 0 0 0 0 0 0 0 0 0
0 0 0 0 0 0 0 0 0 0 0 0 0 0 0 0 0 0 0 0 0 0 0 0 0 0 0 0 0 0 0 0 0 0 0 0 0 0
0 0 0 0 0 0 0 0 0 0 0 0 0 0 0 0 0 0 0 0 0 0 0 0 0 0 0 0 0 0 0 0 0 0 0 0 0 0
0 0 0 0 0 0 0 0 0 0 0 0 0 0 0 0 0 0 0 0 0 0 0 0 0 0 0 0 0 0 0 0 0 0 0 0 0 0
0 0 0 0 0 0 0 0 0 0 0 0 0 0 0 0 0 0 0 0 0 0 0 0 0 0 0 0 0 0 0 0 0 0 0 0 0 0
0 0 0 0 0 0 0 0 0 0 0 0 0 0 0 0 0 0 0 0 0 0 0 0 0 0 0 0 0 0 0 0 0 0 0 0 0 0
0 0 0 0 0 0 0 0 0 0 0 0 0 0 0 0 0 0 0 0 0 0 0 0 0 0 0 0 0 0 0 0 0 0 0 0 0 0
0 0 0 0 0 0 0 0 0 0 0 0 0 0 0 0 0 0 0 0 0 0 0 0 0 0 0 0 0 0 0 0 0 0 0 0 0 0
0 0 0 0 0 0 0 0 0 0 0 0 0 0 0 0 0 0 0 0 0 0 0 0 0 0 0 0 0 0 0 0 0 0 0 0 0 0
0 0 0 0 0 0 0 0 0 0 0 0 0 0 0 0 0 0 0 0 0 0 0 0 0 0 0 0 0 0 0 0 0 0 0 0 0 0
0 0 0 0 0 0 0 0 0 0 0 0 0 0 0 0 0 0 0 0 0 0 0 0 0 0 0 0 0 0 0 0 0 0 0 0 0 0
0 0 0 0 0 0 0 0 0 0 0 0 0 0 0 0 0 0 0 0 0 0 0 0 0 0 0 0 0 0 0 0 0 0 0 0 0 0
0 0 0 0 0 0 0 0 0 0 0 0 0 0 0 0 0 0 0 0 0 0 0 0 0 0 0 0 0 0 0 0 0 0 0 0 0 0
0 0 0 0 0 0 0 0 0 0 0 0 0 0 0 0 0 0 0 0 0 0 0 0 0 0 0 0 0 0 0 0 0 0 0 0 0 0
0 0 0 0 0 0 0 0 0 0 0 0 0 0 0 0 0 0 0 0 0 0 0 0 0 0 0 0 0 0 0 0 0 0 0 0 0 0
0 0 0 0 0 0 0 0 0 0 0 0 0 0 0 0 0 0 0 0 0 0 0 0 0 0 0 0 0 0 0 0 0 0 0 0 0 0
0 0 0 0 0 0 0 0 0 0 0 0 0 0 0 0 0 0 0 0 0 0 0 0 0 0 0 0 0 0 0 0 0 0 0 0 0 0
0 0 0 0 0 0 0 0 0 0 0 0 0 0 0 0 0 0 0 0 0 0 0 0 0 0 0 0 0 0 0 0 0 0 0 0 0 0
0 0 0 0 0 0 0 0 0 0 0 0 0 0 0 0 0 0 0 0 0 0 0 0 0 0 0 0 0 0 0 0 0 0 0 0 0 0
Wind_Speed
5 5 5 4 4 4 3 3 5 7 7 5 3 3 4 4 8 6 7 12 14 15 14 14 14 14 14 13 14 14 13 12 12 12 14 16 17 17
4 5 5 4 4 4 4 4 5 6 8 5 5 4 5 6 9 7 8 13 13 14 14 14 14 14 14 13 13 13 13 12 12 13 14 15 15 15
5 6 6 5 4 4 4 4 5 5 9 8 5 5 5 6 7 6 7 7 7 13 14 13 13 12 12 12 12 12 12 12 12 12 13 14 14 14
6 6 6 5 5 5 4 5 5 6 7 10 7 5 6 6 7 7 6 6 6 11 13 13 12 11 11 11 10 11 11 11 12 12 13 13 14 14
6 6 6 6 6 5 6 6 5 6 6 7 8 6 5 5 6 6 6 6 6 8 10 11 11 11 11 10 10 10 9 9 10 11 12 12 13 13
6 6 6 6 7 7 6 6 6 6 6 7 7 6 6 5 4 5 6 4 5 5 6 7 8 9 9 9 9 8 8 9 9 10 11 11 11 12
6 6 6 8 9 8 6 5 5 5 5 6 7 7 6 5 4 4 6 5 5 4 4 4 5 4 5 7 8 8 8 9 9 10 10 10 11 12
6 6 7 7 9 11 12 11 9 8 7 7 7 8 8 6 5 5 5 5 5 3 3 5 3 4 4 3 7 8 8 8 8 8 9 10 10 10
6 6 6 7 9 7 9 11 11 13 12 9 9 9 8 7 7 7 6 6 7 4 3 5 3 5 4 4 7 7 7 7 7 8 9 8 8 8
6 6 7 7 7 8 7 7 8 8 10 8 8 9 8 7 7 7 7 6 5 4 3 4 3 3 4 3 6 6 6 6 6 6 7 7 7 8
6 6 6 7 11 12 8 8 8 7 9 12 12 12 13 12 8 4 4 4 5 4 2 2 2 3 3 3 3 5 5 5 5 6 6 6 6 5
5 5 8 9 12 12 7 6 8 7 6 7 8 9 8 8 9 5 4 4 3 3 2 1 1 1 2 2 2 2 3 4 5 5 5 5 5 3
5 4 5 11 12 12 10 6 8 8 6 6 5 5 4 4 4 3 3 3 4 4 3 1 2 1 2 2 2 2 2 2 2 3 3 4 3 3
5 4 5 10 11 11 8 8 11 9 4 4 4 4 4 4 3 3 3 3 3 4 4 3 2 2 2 2 2 2 2 1 1 2 2 2 2 3
5 8 9 10 10 7 8 10 8 4 3 4 4 4 4 4 4 2 2 1 2 2 2 3 2 2 2 2 2 2 2 2 1 1 2 1 1 1
5 6 8 8 7 7 7 5 4 3 4 4 4 4 3 3 3 2 2 2 1 2 2 1 1 1 1 1 1 1 1 1 1 2 2 2 1 1
5 3 2 3 3 3 3 4 3 3 3 2 3 3 3 3 3 2 2 1 1 1 2 2 2 2 1 1 0 0 1 1 1 2 2 2 2 2
5 2 3 3 4 4 4 4 3 3 3 3 3 3 3 3 3 3 2 1 0 0 1 1 1 2 2 3 2 0 1 1 2 2 1 1 2 3
3 3 3 3 4 4 4 4 4 4 3 3 3 3 3 3 3 2 2 1 1 0 1 1 1 1 1 1 3 3 0 1 1 2 2 1 1 3
3 3 4 4 4 4 4 3 3 3 3 3 3 3 2 2 2 2 2 1 1 1 1 1 1 1 0 1 0 2 3 1 1 1 2 1 1 3
3 3 4 4 4 4 3 3 3 3 3 3 3 3 2 2 2 2 2 1 1 1 1 1 1 2 1 2 2 1 2 3 2 1 1 1 2 2
4 4 4 4 4 3 3 3 3 3 3 3 3 3 2 2 2 2 1 1 0 0 1 1 1 1 2 2 2 1 2 3 4 5 4 1 0 0
4 4 4 4 4 3 3 3 3 3 3 3 3 2 2 2 1 1 1 1 1 1 1 1 1 2 2 2 2 1 2 2 3 3 4 5 4 3
Wind_Direction
240 238 240 243 238 240 244 247 263 281 279 260 265 267 273 273 278 279 275 280 280 277 273 267 265 263 263 264 264 263 261 257 250 248 247 245 247 247
242 241 243 245 244 240 240 246 245 259 275 273 268 277 279 284 287 284 277 285 281 278 276 270 266 264 261 258 256 258 255 253 251 249 250 250 247 247
251 249 249 244 246 247 245 247 250 252 271 282 273 275 270 275 285 279 277 273 275 277 277 272 267 265 264 258 252 251 250 248 248 248 248 252 251 249
256 252 252 251 246 246 244 248 252 253 262 281 287 283 271 271 276 277 281 279 274 276 276 274 269 267 265 261 257 254 250 248 247 245 245 250 252 251
260 255 256 253 254 254 251 252 254 260 259 272 281 282 280 278 282 282 279 276 279 278 275 274 270 268 266 263 257 254 250 247 246 244 241 245 250 254
267 259 253 250 254 258 257 255 260 262 264 270 278 285 284 281 274 282 287 279 281 285 280 285 281 277 271 269 263 257 253 249 247 248 244 244 246 250
275 268 260 262 266 265 267 262 262 264 268 273 279 284 285 292 284 281 280 285 282 266 279 285 286 279 271 266 262 258 255 250 247 249 248 246 245 246
282 282 276 268 273 276 279 278 272 267 267 267 274 277 280 282 285 282 283 288 285 261 269 284 278 277 277 264 267 262 256 253 251 252 252 248 248 246
275 276 283 284 285 269 275 279 275 276 272 265 266 269 275 275 274 273 272 274 272 273 276 279 274 274 283 280 275 262 258 258 259 258 252 247 246 248
270 263 269 277 278 280 272 269 265 266 269 267 261 264 268 269 262 262 267 273 280 278 253 263 270 279 296 291 281 273 272 266 262 263 260 254 252 252
269 268 273 271 284 294 286 280 281 278 280 280 280 281 283 284 281 274 267 272 283 279 241 243 269 300 298 287 287 292 288 286 282 276 268 258 252 252
278 271 279 286 292 295 284 279 284 289 294 296 290 292 289 286 282 259 248 258 275 273 239 226 261 314 300 290 298 304 297 289 289 287 281 259 248 242
284 281 279 293 295 296 295 279 284 294 288 286 287 288 292 288 282 270 257 245 250 259 248 226 259 271 249 290 308 310 309 305 306 299 294 274 260 239
285 285 288 298 299 300 298 294 299 303 292 289 290 291 295 299 293 283 277 268 261 256 249 239 243 243 240 276 286 314 335 335 326 321 319 297 272 258
291 300 306 310 308 301 302 306 306 294 288 289 288 290 291 289 288 294 301 298 320 312 287 265 244 244 245 236 249 288 315 326 323 330 327 307 283 249
298 303 311 314 312 309 307 306 298 287 287 282 288 294 301 304 299 297 297 308 335 336 344 333 280 228 231 243 213 264 295 288 320 329 332 333 329 296
312 309 317 316 314 313 312 308 304 306 302 297 296 300 307 313 313 317 305 310 310 302 332 1 38 53 42 211 205 288 332 341 332 334 342 345 341 330
330 319 313 312 312 314 314 313 310 307 302 298 298 296 302 312 318 326 326 328 340 324 324 338 32 39 43 30 13 187 15 357 343 340 345 359 344 339
335 318 312 309 307 307 305 303 306 307 304 301 300 302 307 315 315 318 326 331 340 344 331 327 341 80 75 355 348 7 32 339 346 348 350 359 321 316
331 316 312 310 307 303 300 301 305 308 311 310 310 312 317 320 316 315 312 313 337 11 11 3 9 13 159 187 285 331 350 347 354 341 337 340 320 314
320 313 309 308 308 306 306 306 308 310 313 316 315 317 320 322 317 320 321 325 355 27 11 344 333 1 75 84 76 13 0 9 6 310 320 343 340 346
315 312 311 311 310 309 314 316 317 316 317 316 317 320 322 321 316 318 319 325 357 52 47 13 14 42 66 94 98 71 8 3 16 18 2 328 255 331
315 313 312 313 312 313 313 312 312 310 308 311 315 319 319 318 321 322 322 325 91 101 90 70 47 56 72 98 97 75 33 1 5 17 9 7 17 5